| time (UTC) | temp F | wind direction | speed MPH | gust MPH | rain 1hr in | rain 24hr in | rain mn in | humidity % | barometer mb |
| 20260510025557 | 63 | 0 | 0.0 | 0.0 | 0.00 | 0.00 | 0.00 | 35 | 1021.5 |
| 20260510025100 | 64 | 0 | 0.0 | 0.0 | 0.00 | 0.00 | 0.00 | 34 | 1021.5 |
| 20260510024557 | 64 | 0 | 0.0 | 0.0 | 0.00 | 0.00 | 0.00 | 33 | 1021.5 |
| 20260510024057 | 66 | 0 | 0.0 | 1.0 | 0.00 | 0.00 | 0.00 | 30 | 1021.5 |
| 20260510023557 | 66 | 0 | 0.0 | 1.0 | 0.00 | 0.00 | 0.00 | 30 | 1021.4 |
| 20260510023054 | 67 | 0 | 0.0 | 0.0 | 0.00 | 0.00 | 0.00 | 29 | 1021.4 |
| 20260510022559 | 68 | 0 | 0.0 | 1.0 | 0.00 | 0.00 | 0.00 | 27 | 1021.3 |
| 20260510022057 | 68 | 0 | 0.0 | 1.0 | 0.00 | 0.00 | 0.00 | 26 | 1021.3 |
| 20260510021646 | 69 | 0 | 0.0 | 5.0 | 0.00 | 0.00 | 0.00 | 27 | 1021.3 |
| 20260510021057 | 69 | 0 | 0.0 | 5.0 | 0.00 | 0.00 | 0.00 | 26 | 1021.3 |
| 20260510020557 | 70 | 0 | 0.0 | 5.0 | 0.00 | 0.00 | 0.00 | 25 | 1021.3 |
| 20260510020101 | 70 | 11 | 0.0 | 2.0 | 0.00 | 0.00 | 0.00 | 23 | 1021.3 |
| 20260510015557 | 70 | 0 | 0.0 | 2.0 | 0.00 | 0.00 | 0.00 | 23 | 1021.4 |
| 20260510015058 | 70 | 0 | 0.0 | 3.0 | 0.00 | 0.00 | 0.00 | 25 | 1021.3 |
| 20260510014600 | 70 | 11 | 0.0 | 3.0 | 0.00 | 0.00 | 0.00 | 21 | 1021.3 |
| 20260510014055 | 70 | 0 | 0.0 | 3.0 | 0.00 | 0.00 | 0.00 | 20 | 1021.3 |
| 20260510013556 | 70 | 11 | 1.0 | 3.0 | 0.00 | 0.00 | 0.00 | 26 | 1021.3 |
| 20260510013102 | 70 | 0 | 0.0 | 1.0 | 0.00 | 0.00 | 0.00 | 25 | 1021.4 |
| 20260510012556 | 70 | 0 | 0.0 | 2.0 | 0.00 | 0.00 | 0.00 | 26 | 1021.5 |
| 20260510012055 | 70 | 15 | 0.0 | 2.0 | 0.00 | 0.00 | 0.00 | 26 | 1021.4 |
| 20260510011555 | 70 | 15 | 0.0 | 3.0 | 0.00 | 0.00 | 0.00 | 25 | 1021.5 |
| 20260510011055 | 70 | 0 | 0.0 | 3.0 | 0.00 | 0.00 | 0.00 | 25 | 1021.5 |
| 20260510010557 | 70 | 13 | 0.0 | 3.0 | 0.00 | 0.00 | 0.00 | 27 | 1021.6 |
| 20260510010059 | 71 | 360 | 1.0 | 3.0 | 0.00 | 0.00 | 0.00 | 25 | 1021.5 |
| 20260510005555 | 71 | 13 | 0.0 | 3.0 | 0.00 | 0.00 | 0.00 | 26 | 1021.4 |
| 20260510005055 | 71 | 13 | 1.0 | 3.0 | 0.00 | 0.00 | 0.00 | 25 | 1021.5 |
| 20260510004552 | 72 | 15 | 0.0 | 3.0 | 0.00 | 0.00 | 0.00 | 25 | 1021.5 |
| 20260510004056 | 72 | 13 | 1.0 | 3.0 | 0.00 | 0.00 | 0.00 | 26 | 1021.6 |
| 20260510003555 | 72 | 13 | 1.0 | 3.0 | 0.00 | 0.00 | 0.00 | 27 | 1021.5 |
| 20260510003100 | 73 | 12 | 1.0 | 3.0 | 0.00 | 0.00 | 0.00 | 27 | 1021.5 |
| 20260510002559 | 74 | 13 | 0.0 | 3.0 | 0.00 | 0.00 | 0.00 | 27 | 1021.6 |
| 20260510002055 | 74 | 13 | 0.0 | 3.0 | 0.00 | 0.00 | 0.00 | 27 | 1021.6 |
| 20260510001557 | 74 | 0 | 1.0 | 3.0 | 0.00 | 0.00 | 0.00 | 24 | 1021.5 |
| 20260510001056 | 74 | 15 | 1.0 | 3.0 | 0.00 | 0.00 | 0.00 | 25 | 1021.5 |
| 20260510000558 | 74 | 0 | 1.0 | 4.0 | 0.00 | 0.00 | 0.00 | 26 | 1021.6 |
| 20260510000054 | 73 | 0 | 0.0 | 4.0 | 0.00 | 0.00 | 0.00 | 26 | 1021.6 |
| 20260509235555 | 72 | 15 | 0.0 | 3.0 | 0.00 | 0.00 | 0.00 | 27 | 1021.7 |
| 20260509235056 | 72 | 13 | 1.0 | 3.0 | 0.00 | 0.00 | 0.00 | 27 | 1021.6 |
| 20260509234555 | 73 | 15 | 0.0 | 2.0 | 0.00 | 0.00 | 0.00 | 26 | 1021.7 |
| 20260509234055 | 72 | 14 | 0.0 | 3.0 | 0.00 | 0.00 | 0.00 | 26 | 1021.8 |
| 20260509233555 | 72 | 14 | 1.0 | 3.0 | 0.00 | 0.00 | 0.00 | 25 | 1021.8 |
| 20260509233058 | 72 | 13 | 0.0 | 3.0 | 0.00 | 0.00 | 0.00 | 27 | 1021.8 |
| 20260509232555 | 72 | 15 | 1.0 | 3.0 | 0.00 | 0.00 | 0.00 | 26 | 1021.8 |
| 20260509232055 | 72 | 13 | 1.0 | 4.0 | 0.00 | 0.00 | 0.00 | 28 | 1021.8 |
| 20260509231558 | 72 | 16 | 0.0 | 4.0 | 0.00 | 0.00 | 0.00 | 29 | 1021.9 |
| 20260509231056 | 71 | 14 | 1.0 | 4.0 | 0.00 | 0.00 | 0.00 | 29 | 1021.9 |
| 20260509230555 | 71 | 12 | 1.0 | 4.0 | 0.00 | 0.00 | 0.00 | 30 | 1022.0 |
| 20260509230058 | 71 | 13 | 1.0 | 4.0 | 0.00 | 0.00 | 0.00 | 27 | 1021.9 |
| 20260509225556 | 71 | 14 | 1.0 | 4.0 | 0.00 | 0.00 | 0.00 | 26 | 1022.0 |
| 20260509225055 | 71 | 15 | 1.0 | 5.0 | 0.00 | 0.00 | 0.00 | 27 | 1022.0 |
| 20260509224556 | 72 | 14 | 0.0 | 5.0 | 0.00 | 0.00 | 0.00 | 25 | 1022.2 |
| 20260509224055 | 72 | 0 | 1.0 | 4.0 | 0.00 | 0.00 | 0.00 | 26 | 1022.2 |
| 20260509223555 | 72 | 14 | 1.0 | 5.0 | 0.00 | 0.00 | 0.00 | 27 | 1022.3 |
| 20260509223055 | 72 | 15 | 1.0 | 5.0 | 0.00 | 0.00 | 0.00 | 27 | 1022.4 |
| 20260509222556 | 72 | 14 | 1.0 | 4.0 | 0.00 | 0.00 | 0.00 | 30 | 1022.4 |
| 20260509222055 | 72 | 14 | 1.0 | 4.0 | 0.00 | 0.00 | 0.00 | 29 | 1022.5 |
| 20260509221557 | 71 | 11 | 1.0 | 4.0 | 0.00 | 0.00 | 0.00 | 27 | 1022.6 |
| 20260509221056 | 71 | 13 | 1.0 | 4.0 | 0.00 | 0.00 | 0.00 | 27 | 1022.6 |
| 20260509220556 | 71 | 13 | 1.0 | 5.0 | 0.00 | 0.00 | 0.00 | 27 | 1022.7 |
| 20260509220058 | 71 | 15 | 1.0 | 5.0 | 0.00 | 0.00 | 0.00 | 28 | 1022.8 |
| 20260509215555 | 71 | 15 | 1.0 | 4.0 | 0.00 | 0.00 | 0.00 | 29 | 1022.8 |
| 20260509215056 | 71 | 16 | 1.0 | 4.0 | 0.00 | 0.00 | 0.00 | 29 | 1022.8 |
| 20260509214558 | 71 | 12 | 1.0 | 3.0 | 0.00 | 0.00 | 0.00 | 30 | 1022.8 |
| 20260509214055 | 70 | 15 | 1.0 | 4.0 | 0.00 | 0.00 | 0.00 | 29 | 1022.9 |
| 20260509213555 | 70 | 13 | 1.0 | 4.0 | 0.00 | 0.00 | 0.00 | 28 | 1023.0 |
| 20260509213114 | 70 | 13 | 1.0 | 4.0 | 0.00 | 0.00 | 0.00 | 30 | 1023.0 |
| 20260509212556 | 70 | 360 | 1.0 | 4.0 | 0.00 | 0.00 | 0.00 | 31 | 1023.1 |
| 20260509212055 | 70 | 14 | 1.0 | 4.0 | 0.00 | 0.00 | 0.00 | 28 | 1023.1 |
| 20260509211605 | 70 | 15 | 1.0 | 5.0 | 0.00 | 0.00 | 0.00 | 29 | 1023.0 |
| 20260509211056 | 70 | 15 | 1.0 | 5.0 | 0.00 | 0.00 | 0.00 | 30 | 1023.1 |
| 20260509210556 | 70 | 14 | 0.0 | 4.0 | 0.00 | 0.00 | 0.00 | 33 | 1023.1 |
| 20260509210107 | 70 | 15 | 1.0 | 4.0 | 0.00 | 0.00 | 0.00 | 31 | 1023.0 |
| 20260509205558 | 70 | 0 | 1.0 | 3.0 | 0.00 | 0.00 | 0.00 | 31 | 1023.0 |
| 20260509205055 | 69 | 13 | 1.0 | 4.0 | 0.00 | 0.00 | 0.00 | 32 | 1023.1 |
| 20260509204603 | 69 | 13 | 1.0 | 4.0 | 0.00 | 0.00 | 0.00 | 33 | 1023.1 |
| 20260509204056 | 68 | 360 | 1.0 | 4.0 | 0.00 | 0.00 | 0.00 | 36 | 1023.3 |
| 20260509203556 | 68 | 13 | 1.0 | 4.0 | 0.00 | 0.00 | 0.00 | 31 | 1023.2 |
| 20260509203100 | 68 | 15 | 1.0 | 4.0 | 0.00 | 0.00 | 0.00 | 32 | 1023.4 |
| 20260509202555 | 67 | 14 | 1.0 | 5.0 | 0.00 | 0.00 | 0.00 | 33 | 1023.4 |
| 20260509202058 | 67 | 14 | 1.0 | 5.0 | 0.00 | 0.00 | 0.00 | 32 | 1023.4 |
| 20260509201605 | 67 | 360 | 2.0 | 4.0 | 0.00 | 0.00 | 0.00 | 35 | 1023.4 |
| 20260509201055 | 67 | 360 | 1.0 | 4.0 | 0.00 | 0.00 | 0.00 | 34 | 1023.3 |
| 20260509200555 | 66 | 14 | 1.0 | 4.0 | 0.00 | 0.00 | 0.00 | 35 | 1023.3 |
| 20260509200100 | 66 | 360 | 1.0 | 4.0 | 0.00 | 0.00 | 0.00 | 35 | 1023.4 |
| 20260509195555 | 66 | 0 | 1.0 | 4.0 | 0.00 | 0.00 | 0.00 | 37 | 1023.3 |
| 20260509195055 | 66 | 13 | 1.0 | 4.0 | 0.00 | 0.00 | 0.00 | 41 | 1023.4 |
| 20260509194600 | 66 | 0 | 1.0 | 4.0 | 0.00 | 0.00 | 0.00 | 39 | 1023.5 |
| 20260509194135 | 66 | 13 | 1.0 | 4.0 | 0.00 | 0.00 | 0.00 | 40 | 1023.6 |
| 20260509193556 | 66 | 15 | 1.0 | 5.0 | 0.00 | 0.00 | 0.00 | 40 | 1023.7 |
| 20260509193056 | 67 | 360 | 1.0 | 5.0 | 0.00 | 0.00 | 0.00 | 40 | 1023.7 |
| 20260509192555 | 68 | 14 | 2.0 | 10.0 | 0.00 | 0.00 | 0.00 | 41 | 1023.7 |
| 20260509192055 | 68 | 14 | 1.0 | 10.0 | 0.00 | 0.00 | 0.00 | 38 | 1023.7 |
| 20260509191605 | 67 | 11 | 2.0 | 10.0 | 0.00 | 0.00 | 0.00 | 28 | 1023.8 |
| 20260509191056 | 67 | 14 | 3.0 | 9.0 | 0.00 | 0.00 | 0.00 | 31 | 1023.6 |
| 20260509190559 | 67 | 360 | 3.0 | 7.0 | 0.00 | 0.00 | 0.00 | 30 | 1023.7 |
| 20260509190057 | 67 | 360 | 1.0 | 5.0 | 0.00 | 0.00 | 0.00 | 29 | 1023.8 |
| 20260509185556 | 67 | 360 | 2.0 | 5.0 | 0.00 | 0.00 | 0.00 | 33 | 1023.8 |
| 20260509185056 | 67 | 13 | 1.0 | 7.0 | 0.00 | 0.00 | 0.00 | 30 | 1023.7 |
| 20260509184606 | 67 | 10 | 2.0 | 7.0 | 0.00 | 0.00 | 0.00 | 32 | 1023.9 |
| 20260509184056 | 67 | 14 | 2.0 | 5.0 | 0.00 | 0.00 | 0.00 | 35 | 1024.0 |
| 20260509183555 | 67 | 13 | 0.0 | 7.0 | 0.00 | 0.00 | 0.00 | 32 | 1023.9 |
| 20260509183058 | 66 | 15 | 2.0 | 7.0 | 0.00 | 0.00 | 0.00 | 33 | 1023.8 |
| 20260509182555 | 66 | 0 | 2.0 | 7.0 | 0.00 | 0.00 | 0.00 | 34 | 1024.0 |
| 20260509182058 | 66 | 14 | 1.0 | 7.0 | 0.00 | 0.00 | 0.00 | 35 | 1024.0 |
| 20260509181601 | 65 | 10 | 1.0 | 5.0 | 0.00 | 0.00 | 0.00 | 34 | 1024.1 |
| 20260509181056 | 65 | 13 | 2.0 | 9.0 | 0.00 | 0.00 | 0.00 | 31 | 1024.0 |
| 20260509180556 | 65 | 15 | 1.0 | 9.0 | 0.00 | 0.00 | 0.00 | 39 | 1024.0 |
| 20260509180115 | 65 | 13 | 2.0 | 8.0 | 0.00 | 0.00 | 0.00 | 33 | 1024.0 |
| 20260509175555 | 65 | 0 | 1.0 | 8.0 | 0.00 | 0.00 | 0.00 | 35 | 1024.0 |
| 20260509175056 | 65 | 11 | 1.0 | 8.0 | 0.00 | 0.00 | 0.00 | 32 | 1024.1 |
| 20260509174557 | 64 | 10 | 1.0 | 7.0 | 0.00 | 0.00 | 0.00 | 35 | 1024.0 |
| 20260509174056 | 64 | 13 | 1.0 | 9.0 | 0.00 | 0.00 | 0.00 | 35 | 1024.0 |
| 20260509173555 | 63 | 13 | 2.0 | 9.0 | 0.00 | 0.00 | 0.00 | 36 | 1023.9 |
| 20260509173106 | 62 | 0 | 2.0 | 9.0 | 0.00 | 0.00 | 0.00 | 37 | 1023.8 |
| 20260509172556 | 62 | 10 | 2.0 | 9.0 | 0.00 | 0.00 | 0.00 | 41 | 1023.9 |
| 20260509172055 | 61 | 10 | 2.0 | 8.0 | 0.00 | 0.00 | 0.00 | 42 | 1024.0 |
| 20260509171557 | 60 | 13 | 0.0 | 4.0 | 0.00 | 0.00 | 0.00 | 43 | 1023.9 |
| 20260509171055 | 59 | 11 | 1.0 | 5.0 | 0.00 | 0.00 | 0.00 | 45 | 1023.8 |
| 20260509170557 | 59 | 11 | 2.0 | 9.0 | 0.00 | 0.00 | 0.00 | 62 | 1023.8 |
| 20260509170054 | 59 | 15 | 3.0 | 9.0 | 0.00 | 0.00 | 0.00 | 44 | 1023.8 |
| 20260509165555 | 58 | 13 | 1.0 | 4.0 | 0.00 | 0.00 | 0.00 | 52 | 1023.8 |
| 20260509165056 | 57 | 12 | 1.0 | 5.0 | 0.00 | 0.00 | 0.00 | 65 | 1023.8 |
| 20260509164554 | 56 | 14 | 1.0 | 5.0 | 0.00 | 0.00 | 0.00 | 64 | 1023.8 |
| 20260509164055 | 54 | 11 | 2.0 | 4.0 | 0.00 | 0.00 | 0.00 | 55 | 1023.8 |
| 20260509163555 | 54 | 15 | 0.0 | 3.0 | 0.00 | 0.00 | 0.00 | 77 | 1023.8 |
| 20260509163056 | 53 | 15 | 1.0 | 3.0 | 0.00 | 0.00 | 0.00 | 79 | 1023.8 |
| 20260509162555 | 52 | 14 | 0.0 | 3.0 | 0.00 | 0.00 | 0.00 | 80 | 1023.7 |
| 20260509162055 | 52 | 15 | 0.0 | 3.0 | 0.00 | 0.00 | 0.00 | 80 | 1023.8 |
| 20260509161605 | 52 | 0 | 0.0 | 3.0 | 0.00 | 0.00 | 0.00 | 81 | 1023.8 |
| 20260509161055 | 51 | 15 | 0.0 | 3.0 | 0.00 | 0.00 | 0.00 | 81 | 1023.9 |
| 20260509160556 | 51 | 14 | 0.0 | 2.0 | 0.00 | 0.00 | 0.00 | 81 | 1023.9 |
| 20260509155555 | 50 | 0 | 0.0 | 2.0 | 0.00 | 0.00 | 0.00 | 82 | 1023.9 |
| 20260509155055 | 50 | 0 | 0.0 | 2.0 | 0.00 | 0.00 | 0.00 | 83 | 1023.9 |
| 20260509154604 | 50 | 15 | 0.0 | 2.0 | 0.00 | 0.00 | 0.00 | 83 | 1023.8 |
| 20260509154056 | 49 | 0 | 0.0 | 1.0 | 0.00 | 0.00 | 0.00 | 84 | 1023.8 |
| 20260509153555 | 49 | 0 | 0.0 | 1.0 | 0.00 | 0.00 | 0.00 | 85 | 1023.6 |
| 20260509153105 | 48 | 0 | 0.0 | 1.0 | 0.00 | 0.00 | 0.00 | 86 | 1023.7 |
| 20260509152555 | 48 | 0 | 0.0 | 3.0 | 0.00 | 0.00 | 0.00 | 87 | 1023.8 |
| 20260509152056 | 47 | 0 | 0.0 | 3.0 | 0.00 | 0.00 | 0.00 | 88 | 1023.9 |
| 20260509151607 | 46 | 0 | 0.0 | 2.0 | 0.00 | 0.00 | 0.00 | 89 | 1023.9 |
| 20260509151056 | 46 | 0 | 0.0 | 2.0 | 0.00 | 0.00 | 0.00 | 90 | 1023.9 |
| 20260509150556 | 45 | 0 | 0.0 | 1.0 | 0.00 | 0.00 | 0.00 | 91 | 1023.9 |
| 20260509150103 | 44 | 0 | 0.0 | 1.0 | 0.00 | 0.00 | 0.00 | 91 | 1023.9 |
| 20260509145555 | 44 | 0 | 0.0 | 0.0 | 0.00 | 0.00 | 0.00 | 91 | 1023.8 |
| 20260509145056 | 43 | 0 | 0.0 | 0.0 | 0.00 | 0.00 | 0.00 | 91 | 1023.8 |
| 20260509144559 | 43 | 0 | 0.0 | 0.0 | 0.00 | 0.00 | 0.00 | 90 | 1023.8 |
| 20260509144057 | 43 | 0 | 0.0 | 0.0 | 0.00 | 0.00 | 0.00 | 89 | 1023.7 |
| 20260509143555 | 43 | 0 | 0.0 | 0.0 | 0.00 | 0.00 | 0.00 | 90 | 1023.8 |
| 20260509143058 | 42 | 0 | 0.0 | 1.0 | 0.00 | 0.00 | 0.00 | 89 | 1023.8 |
| 20260509142556 | 42 | 0 | 0.0 | 1.0 | 0.00 | 0.00 | 0.00 | 89 | 1023.9 |
| 20260509142055 | 42 | 0 | 0.0 | 1.0 | 0.00 | 0.00 | 0.00 | 87 | 1023.9 |
| 20260509141605 | 41 | 102 | 0.0 | 2.0 | 0.00 | 0.00 | 0.00 | 86 | 1023.8 |
| 20260509141056 | 41 | 0 | 0.0 | 2.0 | 0.00 | 0.00 | 0.00 | 84 | 1023.8 |
| 20260509140556 | 41 | 0 | 0.0 | 2.0 | 0.00 | 0.00 | 0.00 | 84 | 1023.8 |
| 20260509140108 | 41 | 0 | 0.0 | 2.0 | 0.00 | 0.00 | 0.00 | 83 | 1023.7 |
| 20260509135555 | 41 | 102 | 0.0 | 2.0 | 0.00 | 0.00 | 0.00 | 82 | 1023.5 |
| 20260509135055 | 41 | 102 | 0.0 | 2.0 | 0.00 | 0.00 | 0.00 | 82 | 1023.6 |
| 20260509134556 | 41 | 102 | 0.0 | 2.0 | 0.00 | 0.00 | 0.00 | 81 | 1023.7 |
| 20260509134056 | 41 | 0 | 0.0 | 2.0 | 0.00 | 0.00 | 0.00 | 81 | 1023.8 |
| 20260509133555 | 41 | 0 | 0.0 | 2.0 | 0.00 | 0.00 | 0.00 | 81 | 1023.7 |
| 20260509133057 | 41 | 102 | 0.0 | 2.0 | 0.00 | 0.00 | 0.00 | 81 | 1023.7 |
| 20260509132556 | 41 | 0 | 0.0 | 2.0 | 0.00 | 0.00 | 0.00 | 80 | 1023.5 |
| 20260509132056 | 41 | 0 | 0.0 | 2.0 | 0.00 | 0.00 | 0.00 | 80 | 1023.4 |
| 20260509131649 | 41 | 0 | 0.0 | 2.0 | 0.00 | 0.00 | 0.00 | 79 | 1023.4 |
| 20260509131055 | 41 | 0 | 0.0 | 2.0 | 0.00 | 0.00 | 0.00 | 79 | 1023.3 |
| 20260509130558 | 41 | 0 | 0.0 | 2.0 | 0.00 | 0.00 | 0.00 | 79 | 1023.2 |
| 20260509130053 | 41 | 0 | 0.0 | 1.0 | 0.00 | 0.00 | 0.00 | 79 | 1023.3 |
| 20260509125558 | 41 | 0 | 0.0 | 2.0 | 0.00 | 0.00 | 0.00 | 80 | 1023.2 |
| 20260509125055 | 41 | 0 | 0.0 | 2.0 | 0.00 | 0.00 | 0.00 | 80 | 1023.2 |
| 20260509124556 | 41 | 0 | 0.0 | 2.0 | 0.00 | 0.00 | 0.00 | 80 | 1023.2 |
| 20260509124055 | 41 | 0 | 0.0 | 2.0 | 0.00 | 0.00 | 0.00 | 80 | 1023.3 |
| 20260509123556 | 41 | 105 | 0.0 | 2.0 | 0.00 | 0.00 | 0.00 | 80 | 1023.2 |
| 20260509123056 | 41 | 113 | 0.0 | 2.0 | 0.00 | 0.00 | 0.00 | 81 | 1023.4 |
| 20260509122555 | 41 | 0 | 0.0 | 2.0 | 0.00 | 0.00 | 0.00 | 80 | 1023.2 |
| 20260509122055 | 41 | 0 | 0.0 | 1.0 | 0.00 | 0.00 | 0.00 | 80 | 1023.3 |
| 20260509121555 | 41 | 0 | 0.0 | 2.0 | 0.00 | 0.00 | 0.00 | 80 | 1023.4 |
| 20260509121056 | 42 | 109 | 0.0 | 2.0 | 0.00 | 0.00 | 0.00 | 80 | 1023.4 |
| 20260509120556 | 42 | 0 | 0.0 | 2.0 | 0.00 | 0.00 | 0.00 | 79 | 1023.4 |
| 20260509120055 | 42 | 0 | 0.0 | 3.0 | 0.00 | 0.00 | 0.00 | 79 | 1023.4 |
| 20260509115555 | 42 | 0 | 0.0 | 3.0 | 0.00 | 0.00 | 0.00 | 80 | 1023.3 |
| 20260509115055 | 42 | 124 | 0.0 | 0.0 | 0.00 | 0.00 | 0.00 | 79 | 1023.2 |
| 20260509114555 | 42 | 0 | 0.0 | 0.0 | 0.00 | 0.00 | 0.00 | 79 | 1023.2 |
| 20260509114055 | 42 | 0 | 0.0 | 0.0 | 0.00 | 0.00 | 0.00 | 79 | 1023.2 |
| 20260509113555 | 42 | 0 | 0.0 | 0.0 | 0.00 | 0.00 | 0.00 | 80 | 1023.3 |
| 20260509113055 | 43 | 0 | 0.0 | 0.0 | 0.00 | 0.00 | 0.00 | 79 | 1023.2 |
| 20260509112555 | 43 | 0 | 0.0 | 0.0 | 0.00 | 0.00 | 0.00 | 79 | 1023.2 |
| 20260509112055 | 43 | 0 | 0.0 | 0.0 | 0.00 | 0.00 | 0.00 | 78 | 1023.2 |
| 20260509111558 | 43 | 0 | 0.0 | 0.0 | 0.00 | 0.00 | 0.00 | 79 | 1023.2 |
| 20260509111056 | 43 | 0 | 0.0 | 0.0 | 0.00 | 0.00 | 0.00 | 78 | 1023.1 |
| 20260509110558 | 43 | 0 | 0.0 | 1.0 | 0.00 | 0.00 | 0.00 | 77 | 1023.0 |
| 20260509110053 | 43 | 0 | 0.0 | 1.0 | 0.00 | 0.00 | 0.00 | 77 | 1023.1 |
| 20260509105555 | 43 | 0 | 0.0 | 0.0 | 0.00 | 0.00 | 0.00 | 77 | 1023.0 |
| 20260509105056 | 43 | 0 | 0.0 | 0.0 | 0.00 | 0.00 | 0.00 | 77 | 1023.0 |
| 20260509104600 | 43 | 0 | 0.0 | 0.0 | 0.00 | 0.00 | 0.00 | 77 | 1023.0 |
| 20260509104056 | 43 | 0 | 0.0 | 0.0 | 0.00 | 0.00 | 0.00 | 77 | 1023.0 |
| 20260509103555 | 43 | 0 | 0.0 | 0.0 | 0.00 | 0.00 | 0.00 | 76 | 1023.1 |
| 20260509103105 | 43 | 0 | 0.0 | 0.0 | 0.00 | 0.00 | 0.00 | 76 | 1023.1 |
| 20260509102555 | 43 | 0 | 0.0 | 0.0 | 0.00 | 0.00 | 0.00 | 76 | 1023.2 |
| 20260509102056 | 43 | 0 | 0.0 | 0.0 | 0.00 | 0.00 | 0.00 | 77 | 1023.2 |
| 20260509101613 | 43 | 0 | 0.0 | 0.0 | 0.00 | 0.00 | 0.00 | 77 | 1023.3 |
| 20260509101055 | 43 | 0 | 0.0 | 0.0 | 0.00 | 0.00 | 0.00 | 77 | 1023.3 |
| 20260509100556 | 43 | 0 | 0.0 | 0.0 | 0.00 | 0.00 | 0.00 | 78 | 1023.2 |
| 20260509095555 | 43 | 0 | 0.0 | 0.0 | 0.00 | 0.00 | 0.00 | 76 | 1023.2 |
| 20260509095055 | 43 | 0 | 0.0 | 0.0 | 0.00 | 0.00 | 0.00 | 76 | 1023.2 |
| 20260509094604 | 43 | 0 | 0.0 | 0.0 | 0.00 | 0.00 | 0.00 | 75 | 1023.1 |
| 20260509094056 | 43 | 0 | 0.0 | 0.0 | 0.00 | 0.00 | 0.00 | 76 | 1023.2 |
| 20260509093556 | 43 | 0 | 0.0 | 0.0 | 0.00 | 0.00 | 0.00 | 74 | 1023.3 |
| 20260509093100 | 44 | 0 | 0.0 | 2.0 | 0.00 | 0.00 | 0.00 | 76 | 1023.3 |
| 20260509092555 | 44 | 0 | 0.0 | 3.0 | 0.00 | 0.00 | 0.00 | 75 | 1023.2 |
| 20260509092059 | 44 | 0 | 0.0 | 3.0 | 0.00 | 0.00 | 0.00 | 74 | 1023.1 |
| 20260509091557 | 44 | 80 | 0.0 | 3.0 | 0.00 | 0.00 | 0.00 | 74 | 1023.2 |
| 20260509091055 | 44 | 84 | 0.0 | 2.0 | 0.00 | 0.00 | 0.00 | 73 | 1023.2 |
| 20260509090556 | 44 | 0 | 0.0 | 3.0 | 0.00 | 0.00 | 0.00 | 74 | 1023.2 |
| 20260509090101 | 44 | 82 | 0.0 | 3.0 | 0.00 | 0.00 | 0.00 | 73 | 1023.2 |
| 20260509085555 | 44 | 80 | 1.0 | 3.0 | 0.00 | 0.00 | 0.00 | 72 | 1023.0 |
| 20260509085055 | 44 | 0 | 0.0 | 2.0 | 0.00 | 0.00 | 0.00 | 73 | 1023.1 |
| 20260509084607 | 44 | 0 | 0.0 | 0.0 | 0.00 | 0.00 | 0.00 | 72 | 1023.2 |
| 20260509084055 | 44 | 0 | 0.0 | 1.0 | 0.00 | 0.00 | 0.00 | 72 | 1023.2 |
| 20260509083554 | 44 | 0 | 0.0 | 1.0 | 0.00 | 0.00 | 0.00 | 73 | 1023.2 |
| 20260509083121 | 45 | 0 | 0.0 | 1.0 | 0.00 | 0.00 | 0.00 | 73 | 1023.4 |
| 20260509082555 | 45 | 0 | 0.0 | 2.0 | 0.00 | 0.00 | 0.00 | 73 | 1023.4 |
| 20260509082059 | 45 | 0 | 0.0 | 2.0 | 0.00 | 0.00 | 0.00 | 74 | 1023.5 |
| 20260509081559 | 45 | 0 | 0.0 | 3.0 | 0.00 | 0.00 | 0.00 | 73 | 1023.5 |
| 20260509081055 | 45 | 0 | 0.0 | 3.0 | 0.00 | 0.00 | 0.00 | 73 | 1023.4 |
| 20260509080556 | 45 | 72 | 0.0 | 2.0 | 0.00 | 0.00 | 0.00 | 73 | 1023.5 |
| 20260509080059 | 45 | 84 | 0.0 | 2.0 | 0.00 | 0.00 | 0.00 | 74 | 1023.3 |
| 20260509075555 | 45 | 84 | 1.0 | 2.0 | 0.00 | 0.00 | 0.00 | 72 | 1023.2 |
| 20260509075058 | 45 | 84 | 0.0 | 3.0 | 0.00 | 0.00 | 0.00 | 73 | 1023.3 |
| 20260509074611 | 45 | 0 | 0.0 | 3.0 | 0.00 | 0.00 | 0.00 | 73 | 1023.3 |
| 20260509074055 | 45 | 83 | 0.0 | 2.0 | 0.00 | 0.00 | 0.00 | 71 | 1023.3 |
| 20260509073555 | 46 | 0 | 0.0 | 2.0 | 0.00 | 0.00 | 0.00 | 71 | 1023.3 |
| 20260509073109 | 46 | 80 | 0.0 | 2.0 | 0.00 | 0.00 | 0.00 | 71 | 1023.3 |
| 20260509072556 | 46 | 86 | 0.0 | 3.0 | 0.00 | 0.00 | 0.00 | 72 | 1023.3 |
| 20260509072056 | 46 | 76 | 0.0 | 3.0 | 0.00 | 0.00 | 0.00 | 72 | 1023.5 |
| 20260509071602 | 46 | 0 | 0.0 | 3.0 | 0.00 | 0.00 | 0.00 | 72 | 1023.5 |
| 20260509071056 | 46 | 0 | 0.0 | 3.0 | 0.00 | 0.00 | 0.00 | 71 | 1023.4 |
| 20260509070556 | 46 | 0 | 0.0 | 0.0 | 0.00 | 0.00 | 0.00 | 71 | 1023.5 |
| 20260509070056 | 47 | 0 | 0.0 | 1.0 | 0.00 | 0.00 | 0.00 | 72 | 1023.4 |
| 20260509065557 | 47 | 0 | 0.0 | 2.0 | 0.00 | 0.00 | 0.00 | 72 | 1023.5 |
| 20260509065055 | 47 | 0 | 0.0 | 2.0 | 0.00 | 0.00 | 0.00 | 71 | 1023.5 |
| 20260509064559 | 47 | 58 | 0.0 | 2.0 | 0.00 | 0.00 | 0.00 | 71 | 1023.3 |
| 20260509064056 | 47 | 0 | 0.0 | 2.0 | 0.00 | 0.00 | 0.00 | 71 | 1023.3 |
| 20260509063555 | 47 | 80 | 0.0 | 4.0 | 0.00 | 0.00 | 0.00 | 70 | 1023.4 |
| 20260509063103 | 47 | 0 | 0.0 | 4.0 | 0.00 | 0.00 | 0.00 | 71 | 1023.4 |
| 20260509062555 | 48 | 78 | 1.0 | 3.0 | 0.00 | 0.00 | 0.00 | 70 | 1023.5 |
| 20260509062055 | 48 | 70 | 1.0 | 3.0 | 0.00 | 0.00 | 0.00 | 71 | 1023.4 |
| 20260509061556 | 48 | 0 | 1.0 | 3.0 | 0.00 | 0.00 | 0.00 | 71 | 1023.4 |
| 20260509061055 | 48 | 84 | 0.0 | 3.0 | 0.00 | 0.00 | 0.00 | 71 | 1023.4 |
| 20260509060555 | 48 | 0 | 0.0 | 2.0 | 0.00 | 0.00 | 0.00 | 71 | 1023.5 |
| 20260509060109 | 48 | 0 | 0.0 | 3.0 | 0.00 | 0.00 | 0.00 | 71 | 1023.4 |
| 20260509055555 | 48 | 85 | 0.0 | 3.0 | 0.00 | 0.00 | 0.00 | 70 | 1023.3 |
| 20260509055055 | 48 | 71 | 1.0 | 3.0 | 0.00 | 0.00 | 0.00 | 70 | 1023.3 |
| 20260509054555 | 48 | 74 | 0.0 | 3.0 | 0.00 | 0.00 | 0.00 | 70 | 1023.5 |
| 20260509054057 | 48 | 79 | 1.0 | 3.0 | 0.00 | 0.00 | 0.00 | 70 | 1023.4 |
| 20260509053555 | 48 | 78 | 1.0 | 3.0 | 0.00 | 0.00 | 0.00 | 69 | 1023.4 |
| 20260509053106 | 48 | 0 | 1.0 | 3.0 | 0.00 | 0.00 | 0.00 | 68 | 1023.4 |
| 20260509052556 | 49 | 85 | 1.0 | 3.0 | 0.00 | 0.00 | 0.00 | 68 | 1023.4 |
| 20260509052055 | 49 | 80 | 1.0 | 3.0 | 0.00 | 0.00 | 0.00 | 67 | 1023.5 |
| 20260509051610 | 49 | 80 | 1.0 | 3.0 | 0.00 | 0.00 | 0.00 | 66 | 1023.6 |
| 20260509051055 | 49 | 81 | 1.0 | 3.0 | 0.00 | 0.00 | 0.00 | 66 | 1023.4 |
| 20260509050556 | 49 | 0 | 1.0 | 3.0 | 0.00 | 0.00 | 0.00 | 65 | 1023.5 |
| 20260509050104 | 49 | 85 | 1.0 | 3.0 | 0.00 | 0.00 | 0.00 | 64 | 1023.4 |
| 20260509045558 | 49 | 80 | 1.0 | 3.0 | 0.00 | 0.00 | 0.00 | 64 | 1023.2 |
| 20260509045055 | 49 | 85 | 1.0 | 3.0 | 0.00 | 0.00 | 0.00 | 63 | 1023.3 |
| 20260509044604 | 49 | 0 | 1.0 | 3.0 | 0.00 | 0.00 | 0.00 | 62 | 1023.2 |
| 20260509044055 | 49 | 85 | 1.0 | 3.0 | 0.00 | 0.00 | 0.00 | 62 | 1023.2 |
| 20260509043555 | 50 | 73 | 1.0 | 3.0 | 0.00 | 0.00 | 0.00 | 61 | 1023.2 |
| 20260509043101 | 50 | 85 | 0.0 | 3.0 | 0.00 | 0.00 | 0.00 | 61 | 1023.3 |
| 20260509042555 | 50 | 0 | 1.0 | 2.0 | 0.00 | 0.00 | 0.00 | 60 | 1023.2 |
| 20260509042056 | 50 | 84 | 1.0 | 2.0 | 0.00 | 0.00 | 0.00 | 60 | 1023.2 |
| 20260509041559 | 51 | 89 | 1.0 | 3.0 | 0.00 | 0.00 | 0.00 | 59 | 1023.2 |
| 20260509041055 | 51 | 0 | 1.0 | 3.0 | 0.00 | 0.00 | 0.00 | 58 | 1023.0 |
| 20260509040555 | 51 | 0 | 1.0 | 3.0 | 0.00 | 0.00 | 0.00 | 58 | 1023.2 |
| 20260509040110 | 51 | 73 | 0.0 | 3.0 | 0.00 | 0.00 | 0.00 | 58 | 1023.2 |
| 20260509035555 | 52 | 80 | 0.0 | 2.0 | 0.00 | 0.00 | 0.00 | 57 | 1023.2 |
| 20260509035057 | 52 | 82 | 0.0 | 2.0 | 0.00 | 0.00 | 0.00 | 56 | 1023.0 |
| 20260509034558 | 53 | 80 | 0.0 | 2.0 | 0.00 | 0.00 | 0.00 | 55 | 1023.0 |
| 20260509034058 | 53 | 85 | 0.0 | 0.0 | 0.00 | 0.00 | 0.00 | 54 | 1023.0 |
| 20260509033558 | 53 | 0 | 0.0 | 1.0 | 0.00 | 0.00 | 0.00 | 54 | 1023.0 |
| 20260509033123 | 54 | 0 | 0.0 | 2.0 | 0.00 | 0.00 | 0.00 | 53 | 1023.0 |
| 20260509032557 | 54 | 0 | 0.0 | 2.0 | 0.00 | 0.00 | 0.00 | 52 | 1023.0 |
| 20260509032057 | 55 | 83 | 0.0 | 2.0 | 0.00 | 0.00 | 0.00 | 51 | 1022.9 |
| 20260509031558 | 56 | 77 | 0.0 | 2.0 | 0.00 | 0.00 | 0.00 | 51 | 1022.9 |
| 20260509031058 | 56 | 72 | 0.0 | 2.0 | 0.00 | 0.00 | 0.00 | 50 | 1022.8 |
| 20260509030558 | 57 | 64 | 0.0 | 2.0 | 0.00 | 0.00 | 0.00 | 50 | 1022.6 |
| 20260509030055 | 58 | 59 | 0.0 | 2.0 | 0.00 | 0.00 | 0.00 | 48 | 1022.6 |